Regional Weather Roundup
Issued by NWS

Home | Current Version | Previous Version | Text Only | Print | Product List | Glossary Off
Versions: 1 2 3 4 5 6 7 8 9 10 11 12 13 14 15 16 17 18 19 20 21 22 23 24 25 26 27 28 29 30 31 32 33 34 35 36 37 38 39 40 41 42 43 44 45 46 47 48 49 50

000
ASUS43 KOAX 211502
RWRNE

WEATHER ROUNDUP FOR NEBRASKA
NATIONAL WEATHER SERVICE OMAHA NE
900 AM CST WED FEB 21 2018

NOTES: SATELLITE DATA IS BEING USED TO AUGMENT CLOUD COVER ABOVE
       12000 FEET.
       "FAIR" INDICATES FEW OR NO CLOUDS BELOW 12,000 FEET WITH NO
       SIGNIFICANT WEATHER AND/OR OBSTRUCTIONS TO VISIBILITY.


NEZ001>004-019>022-054>056-211600-
NEBRASKA PANHANDLE

CITY           SKY/WX    TMP DP  RH WIND       PRES   REMARKS
SCOTTSBLUFF    SUNNY     -5 -10  79 N3        30.29R
ALLIANCE       SUNNY    -15 -16  95 CALM      30.28R
CHADRON        MOSUNNY  -10 -19  64 CALM      30.31S
GORDON         FAIR      -4 -11  72 W8        30.30R WCI -19
KIMBALL        SUNNY      8   1  75 SW12      30.22R WCI  -7
SIDNEY         SUNNY     11   5  77 SW10      30.28R WCI  -3
$$

NEZ057>060-069>072-079>082-211600-
SOUTHWEST NEBRASKA

CITY           SKY/WX    TMP DP  RH WIND       PRES   REMARKS
NORTH PLATTE   SUNNY      2  -2  83 CALM      30.46R
IMPERIAL       SUNNY      4  -2  76 W3        30.40R
LEXINGTON      SUNNY     10   3  74 CALM      30.52R
MCCOOK         SUNNY      7   1  76 W5        30.50R WCI  -2
OGALLALA       SUNNY      1  -4  79 W5        30.40R WCI  -9
$$

NEZ005>010-023>029-035>040-094-211600-
NORTH CENTRAL NEBRASKA

CITY           SKY/WX    TMP DP  RH WIND       PRES   REMARKS
VALENTINE      SUNNY     -9 -15  75 SW3       30.42R
AINSWORTH      SUNNY      2  -4  75 W6        30.42S WCI  -9
BROKEN BOW     SUNNY      2  -5  72 CALM      30.47R
O`NEILL        SUNNY     -2  -9  72 SW6       30.50R WCI -14
ORD            SUNNY      2  -3  80 CALM      30.52
THEDFORD       SUNNY      2  -3  77 CALM      30.41R
$$

NEZ041-046>049-061>064-073>077-083>087-211600-
SOUTH CENTRAL NEBRASKA

CITY           SKY/WX    TMP DP  RH WIND       PRES   REMARKS
GRAND ISLAND   SUNNY      9   0  67 S5        30.58R WCI   1
AURORA         SUNNY      9   1  72 CALM      30.58R
HASTINGS       SUNNY      9   0  67 E5        30.56R WCI   1
HEBRON         CLOUDY    10   3  72 E6        30.62R WCI   1
HOLDREGE       SUNNY      9   4  78 SE5       30.53R WCI   1
KEARNEY        SUNNY     10   2  69 S8        30.55R WCI  -2
YORK           CLOUDY     9   5  85 CALM      30.59R
$$

NEZ011>018-030>034-042>045-211600-
NORTHEAST NEBRASKA

CITY           SKY/WX    TMP DP  RH WIND       PRES   REMARKS
NORFOLK        SUNNY      5  -2  72 S3        30.59R
ALBION         MOSUNNY    5  -3  68 CALM      30.58R
BLAIR          CLOUDY    11   5  77 N3        30.61R
COLUMBUS       SUNNY     16   9  74 CALM      30.62R
FREMONT        CLOUDY    10   2  73 CALM      30.63R
TEKAMAH        SUNNY      9   2  73 CALM      30.65R
WAYNE          CLOUDY     6  -1  72 S3        30.61R
$$

NEZ050>053-065>068-078-088>093-211600-
SOUTHEAST NEBRASKA

CITY           SKY/WX    TMP DP  RH WIND       PRES   REMARKS
LINCOLN        CLOUDY    10   3  73 N3        30.65R
OMAHA EPPLEY   CLOUDY    11   3  70 N3        30.65R
BEATRICE       CLOUDY    12   5  72 NE6       30.63R WCI   3
FALLS CITY     CLOUDY    13   5  70 N10       30.63R WCI   0
NEBRASKA CITY  CLOUDY    13   8  82 NE10      30.63R WCI  -1
PLATTSMOUTH    CLOUDY    11   6  78 N5        30.63R WCI   3
$$

NEZ044-045-051>053-067-211600-
OMAHA AREA

CITY           SKY/WX    TMP DP  RH WIND       PRES   REMARKS
OMAHA EPPLEY   CLOUDY    11   3  70 N3        30.65R
BLAIR          CLOUDY    11   5  77 N3        30.61R
FREMONT        CLOUDY    10   2  73 CALM      30.63R
MILLARD        CLOUDY    13   4  65 NE5       30.64R WCI   5
OFFUTT AFB     CLOUDY    12   4  70 N5        30.64R WCI   4
PLATTSMOUTH    CLOUDY    11   6  78 N5        30.63R WCI   3
WAHOO          FAIR      10   2  70 N3        30.63R
$$




USA.gov is the U.S. government's official web portal to all federal, state and local government web resources and services.